Simultaneous Nadir Overpasses (SNOs) Predictions

Prediction of SNOs between AQUA and GOES-15 Satellite Orbit:

Table of predicted SNOs for the next 14.0 days since TLE Epoch: 11/13/2015
Index Date Time (AQUA) AQUA Lat,Lon GOES-15 Lat,Lon Distance(km) Time Diff (sec)
1 11/13/2015 22:28:53 0.34,-133.42 -0.06,-135.37 221.81 80
2 11/14/2015 10:50:09 0.69,-138.58 0.04,-135.40 361.85 80
3 11/16/2015 10:37:55 0.10,-135.61 0.04,-135.42 21.77 80
4 11/18/2015 10:25:42 -0.55,-132.65 0.04,-135.45 317.98 80
5 11/18/2015 22:47:05 -0.54,-137.84 -0.02,-135.43 274.55 80
6 11/20/2015 22:34:52 0.08,-134.87 -0.02,-135.45 64.64 80
7 11/22/2015 22:22:38 0.71,-131.91 -0.03,-135.46 403.41 80
8 11/23/2015 10:43:52 0.36,-137.06 0.00,-135.48 180.08 80
9 11/25/2015 10:31:38 -0.29,-134.10 0.01,-135.49 157.99 80
10 11/25/2015 22:53:02 -0.78,-139.30 0.01,-135.46 435.73 80




NCC Satellite Simultaneous Nadir Overpasses (SNOs) Prediction Service
